STARLINK-37477, 68912

Orbit data source: Space-Track

STARLINK-37477, 68912 is a payload satellite owned by SpaceX/Seattle (US) in SSO that was launched on Thu, 30 Apr 2026 UTC via an FALCON 9 launch vehicle from the Air Force Western Test Range (AFWTR). Payload-class satellites include a variety of spacecraft equipped with specific instruments for various scientific and technological missions. These include communications satellites like Starlink; space stations such as the ISS; scientific satellites like the Hubble; Earth observation satellites from companies like Planet Labs, Umbra, and HawkEye 360; GPS; miniature CubeSats for education and research; and military/defense satellites.

Loading next visibility...
Identifier
68912, 2026-097T
Orbit
SSO
Country
Flag of USUS
Related business
Manufacturer
SpaceX/Seattle
Mission
Operational spacecraft
Bus & Motor
STARLINK V2MO, Unknown motor
Mass
575 kg wet, ~530 kg dry
Launch date (UTC)
2026-04-30 (3 weeks ago)
Launch vehicle
FALCON 9
Launch site
Air Force Western Test Range (AFWTR)
Object type
Payload
Rocket body
Debris
Shape & HBR
Unknown
Radar Cross Section
RCS unknown

Expand to show TLE details & history
Last TLE update: 9 hours ago

TLE from 9 hours ago
0 STARLINK-37477
1 68912U 26097T   26140.58335648  .00000100  00000-0  35006-5 0  9995
2 68912  97.2855 336.2934 0001832 111.6782 215.6350 15.49190215  4489
Epoch: 2026-05-20T14:00Z
TLE epoch observation values (Epoch: 2026-05-20T14:00:01.999Z)
Latitude
-32.67581°
Longitude
-107.27847°
Altitude
432.525 km
Speed
7.65 km/s
True Right ascension
22h 43m 52s
True Declination
-32° 30' 44"
Sunlit
Object was in daylight at epoch
Visualization orbit readout
Latitude
Unknown
Longitude
Unknown
Altitude
Unknown
Speed
Unknown
Apparent Right ascension
Unknown
Apparent Declination
Unknown
Sunlit
N/A
Visualization observer readout
Local Sidereal Time
07:32:11
Azimuth
Unknown
Elevation
Unknown
Doppler factor
Unknown
Orbital elements
Apogee altitude
417.26 km
Perigee altitude
414.771 km
Semi-major axis
6,794.153 km
Eccentricity
0.00018
Inclination
97.2855°
RAAN
336.2934°
Arg. of periapsis
111.6782°
True anomaly
215.62277°
Mean anomaly
215.635°
Eccentric anomaly
215.62889°
Mean motion
3.87561 °/min
Orbital period
92.89 mins
BSTAR
0.0000035006
Loading maneuver chart data...
Computing Atmospheric mass density...
Loading historical data...
Loading historical data...
Loading historical data...
Loading historical data...
Loading historical data...
Loading historical data...
Loading historical data...

Documentation

Showing up to 5 results
|